This is the latest recevied weather packets stored in our database for station/object KC4BAM. If no packets are shown the sender has not sent any weather packets the latest 10 day(s).
| Time | Temp. | Humidity | Pressure | Rain* | Wind** | Luminosity | Snow |
|---|---|---|---|---|---|---|---|
| 1777233326 | 29.44° C | 39% | 1003.1 hPa | 0 mm | - | 576 W/m² | - |
| 1777233023 | 28.33° C | 41% | 1003.1 hPa | 0 mm | - | 550 W/m² | - |
| 1777232720 | 28.33° C | 40% | 1003.2 hPa | 0 mm | - | 503 W/m² | - |
| 1777232418 | 29.44° C | 40% | 1003.3 hPa | 0 mm | - | 213 W/m² | - |
| 1777232115 | 29.44° C | 39% | 1003.3 hPa | 0 mm | - | 650 W/m² | - |
| 1777231812 | 28.89° C | 41% | 1003.2 hPa | 0 mm | - | 615 W/m² | - |
| 1777231508 | 28.33° C | 43% | 1003.3 hPa | 0 mm | - | 599 W/m² | - |
| 1777231204 | 28.89° C | 40% | 1003.4 hPa | 0 mm | - | 611 W/m² | - |
| 1777230900 | 29.44° C | 40% | 1003.3 hPa | 0 mm | - | 583 W/m² | - |
| 1777230596 | 28.89° C | 42% | 1003.2 hPa | 0 mm | - | 636 W/m² | - |
| 1777230292 | 28.89° C | 41% | 1003.4 hPa | 0 mm | - | 652 W/m² | - |
| 1777229989 | 29.44° C | 39% | 1003.3 hPa | 0 mm | - | 647 W/m² | - |
| 1777229685 | 28.89° C | 39% | 1003.2 hPa | 0 mm | - | 670 W/m² | - |
| 1777229382 | 28.89° C | 40% | 1003.5 hPa | 0 mm | - | 524 W/m² | - |
| 1777229079 | 28.89° C | 43% | 1003.4 hPa | 0 mm | - | 661 W/m² | - |
| 1777228777 | 27.78° C | 45% | 1003.4 hPa | 0 mm | - | 649 W/m² | - |
| 1777228472 | 27.78° C | 43% | 1003.7 hPa | 0 mm | - | 639 W/m² | - |
| 1777228168 | 28.33° C | 44% | 1003.6 hPa | 0 mm | - | 673 W/m² | - |
| 1777227867 | 28.33° C | 44% | 1003.7 hPa | 0 mm | - | 687 W/m² | - |
| 1777227564 | 27.78° C | 43% | 1003.9 hPa | 0 mm | - | 672 W/m² | - |
| 1777227259 | 26.67° C | 44% | 1003.9 hPa | 0 mm | - | 724 W/m² | - |
| 1777226956 | 27.78° C | 45% | 1003.9 hPa | 0 mm | - | 418 W/m² | - |
| 1777226655 | 27.78° C | 45% | 1004 hPa | 0 mm | - | 728 W/m² | - |
| 1777226351 | 27.22° C | 46% | 1004.1 hPa | 0 mm | - | 441 W/m² | - |
| 1777226046 | 27.22° C | 47% | 1004.1 hPa | 0 mm | - | 670 W/m² | - |
* Rain latest hour (hover to see other rain measurements)
** Current wind speed in m/s (hover to see current wind gust speed)